Location: LDNL
(36.4545°S, 141.6685°E)
Time: 20:27:22
(UTC+10:00)

LilacSat-2 - Visible Passes

Search period start: 22 May 2022 00:00
Search period end: 01 June 2022 00:00
Orbit: 507 x 531 km, 97.5° (Epoch: 21 May)

Date Brightness Start Highest point End Pass type
(mag) Time Alt. Az. Time Alt. Az. Time Alt. Az.
22 May ? 04:37:50 10° E 04:39:52 14° ESE 04:40:16 14° ESE visible
22 May ? 06:10:07 10° NNW 06:13:37 35° W 06:15:20 23° SW visible
22 May ? 19:19:10 10° SSW 19:21:57 19° WSW 19:24:41 10° WNW visible
23 May ? 05:56:03 10° N 05:59:47 54° W 06:01:17 32° SW visible
23 May ? 19:04:55 10° SSW 19:08:15 27° WSW 19:11:31 10° NW visible
24 May ? 05:42:09 10° N 05:45:58 85° W 05:47:14 42° SSW visible
24 May ? 18:50:50 10° S 18:54:31 40° WSW 18:58:07 10° NW visible
25 May ? 05:28:24 10° NNE 05:32:10 62° ESE 05:33:10 44° SSE visible
25 May ? 18:36:52 10° S 18:40:44 61° WSW 18:44:31 10° NNW visible
26 May ? 05:14:47 10° NE 05:18:24 40° ESE 05:19:06 36° SE visible
26 May ? 06:51:16 10° WNW 06:52:41 12° W 06:54:06 10° WSW visible
26 May ? 18:23:00 10° SSE 18:26:55 86° ENE 18:30:45 10° NNW visible
27 May ? 05:01:22 10° NE 05:04:38 27° ESE 05:05:01 26° ESE visible
27 May ? 06:36:07 10° NW 06:38:43 17° W 06:40:05 15° WSW visible
27 May ? 18:09:14 10° SSE 18:13:05 55° E 18:16:49 10° N visible
28 May ? 04:48:09 10° ENE 04:50:53 19° ESE 04:50:57 19° ESE visible
28 May ? 06:21:34 10° NNW 06:24:47 26° W 06:26:00 22° WSW visible
28 May ? 17:55:34 10° SSE 17:59:11 35° E 18:02:43 10° NNE visible
28 May ? 19:30:52 10° SW 19:32:56 14° WSW 19:34:58 10° W visible
29 May ? 04:35:20 10° E 04:36:52 13° ESE 04:36:52 13° ESE visible
29 May ? 06:07:17 10° NNW 06:10:53 38° W 06:11:55 32° WSW visible
29 May ? 19:16:19 10° SSW 19:19:12 20° WSW 19:22:03 10° WNW visible
30 May ? 05:53:11 10° N 05:56:59 60° W 05:57:50 47° SW visible
30 May ? 19:02:02 10° SSW 19:05:26 29° WSW 19:08:46 10° NW visible
31 May ? 05:39:16 10° NNE 05:43:06 87° ESE 05:43:44 62° S visible
31 May ? 18:47:55 10° S 18:51:38 43° WSW 18:55:15 10° NW visible
